PATHFINDER 1 (41787 NORAD) Tracking and Keplerian Element Data

This shows tracking and keplerian element data for the satellite.

Feedback or suggestion? Click here.




ElementValue
Catalog41787
NamePATHFINDER 1
Epoch Orbit9644
Epoch Day198.74640361
Epoch Year2018
RAAN260.5094
Inclination98.1139
Eccentricity0.0030923
Argument of Perigee359.0359
Mean Anonmoly1.0766
Mean Motion14.63610067
Decay Rate2.6E-07
L11 41787U 16059E 18198.74640361 .00000026 00000-0 14241-4 0 9990
L22 41787 98.1139 260.5094 0030923 359.0359 1.0766 14.63610067 96444

Live tracking and technical data element details for PATHFINDER 1 (NORAD 41787). PATHFINDER 1 can be tracked NOW for your location showing map with azimuth and elevation plus other details from your city location.

Track the satellite on the map from your city or location and see movement details for azimuth, elevation, latitude, longitude, range, height, and movement on the map or in text.







IsCatalogInMostPopularTable: catalog: 41787, numindb: 65
Update: records affected: 1



GetName: 41787 PATHFINDER 1

Hit Count: updated at: Thu, 19 Jul 2018 21:07:44 GMT